Location: Ba�ty
(50.0097°N, 15.2960°E)
Time: 09:46:33
(UTC+00:00)

Daily predictions for brighter satellites

Satellite Brightness Start Highest point End
(mag) Time Altitude Azimuth Time Altitude Azimuth Time Altitude Azimuth
CZ-4C R/B 3.0 15:27:35 10° NW 15:34:32 70° NE 15:42:47 10° SE
Cosmos 1340 Rocket 3.4 15:32:53 10° NNW 15:36:57 64° W 15:40:59 10° S
ATLAS 2AS CENTAUR R/B 4.0 15:30:25 10° WNW 15:36:59 29° N 15:43:15 10° NE
ADEOS 3.8 15:32:34 10° S 15:37:47 77° WSW 15:43:03 10° NNW
Cosmos 841 Rocket 3.9 15:33:24 10° S 15:38:14 43° ESE 15:43:06 10° NE
Cosmos 2034 Rocket 4.0 15:32:29 10° S 15:38:37 82° E 15:44:50 10° N
Cosmos 1743 Rocket 3.6 15:37:28 10° N 15:41:49 85° W 15:46:09 10° S
Cosmos 1697 Rocket 3.3 15:36:18 10° NNW 15:41:53 65° WSW 15:47:25 10° SSE
USA 307 3.2 15:38:43 10° WNW 15:42:53 51° N 15:47:03 10° E
Cosmos 372 Rocket 4.0 15:38:35 10° NNW 15:43:50 69° ENE 15:49:04 10° SSE
Cosmos 2322 Rocket 3.2 15:39:35 10° NNW 15:44:15 25° NE 15:48:54 10° E
CZ-4C R/B 3.2 15:40:42 10° NNE 15:44:31 87° WNW 15:48:06 10° SSW
Meteor PRIRODA 3.5 15:41:19 10° SSE 15:44:55 70° ENE 15:48:33 10° N
Cosmos 1937 Rocket 3.7 15:39:51 10° NNW 15:45:12 81° WSW 15:50:31 10° SSE
ERBS 3.7 15:42:55 10° WNW 15:45:34 23° N 15:48:11 10° NE
USA 234 3.3 15:39:56 10° ESE 15:46:26 69° NNE 15:52:56 10° WNW
Lacrosse 5 rocket 1.2 15:42:55 10° NW 15:46:45 64° NNE 15:50:47 10° ESE
Cosmos 1980 Rocket 2.2 15:42:25 10° NNW 15:48:08 81° ENE 15:53:46 10° SSE
Cosmos 2026 Rocket 3.9 15:45:57 10° N 15:52:04 68° ENE 15:58:06 10° SSE
Cosmos 1666 Rocket 4.0 15:48:49 10° N 15:52:59 38° ENE 15:57:06 10° SE
AQUARIUS 4.4 15:49:09 10° SE 15:53:26 46° ENE 15:57:44 10° N
Cosmos 1809 Rocket 4.4 15:47:39 10° N 15:53:47 77° ENE 15:59:52 10° SSE
Cosmos 1125 Rocket 4.3 15:49:49 10° N 15:54:26 30° NE 15:59:03 10° ESE
CORIOLIS 4.3 15:50:04 10° SE 15:55:20 55° ENE 16:00:38 10° N
Cosmos 1634 Rocket 4.2 15:49:24 10° SSE 15:55:33 56° E 16:01:43 10° NNE
Cosmos 2195 Rocket 4.5 15:50:30 10° N 15:56:42 84° E 16:02:56 10° S
H-2A R/B 2.5 15:55:01 10° SE 15:59:38 36° ENE 16:04:11 10° N
Cosmos 2369 4.1 15:54:01 10° NNW 15:59:44 71° WSW 16:05:25 10° SSE
Cosmos 1812 3.4 15:59:04 10° SSE 16:02:35 34° E 16:06:06 10° NNE
PSLV R/B 4.2 16:00:22 10° SE 16:03:48 37° ENE 16:07:20 10° N
Okean O Rocket 2.8 16:01:14 10° ESE 16:04:41 23° ENE 16:08:09 10° N
ATLAS CENTAUR R/B 3.7 16:02:06 10° NW 16:04:44 15° NNW 16:07:26 10° NNE
SL-16 R/B 2.7 15:59:53 10° NNW 16:05:12 38° NE 16:10:28 10° ESE
Cosmos 2221 4.2 16:01:20 10° SW 16:05:15 33° WNW 16:09:13 10° N
USA 308 3.1 16:01:27 10° WNW 16:05:39 57° NNE 16:09:19 13° E
CZ-2C R/B 3.3 16:01:44 10° S 16:06:32 68° WSW 16:11:17 10° NNW
Sich 1 3.0 16:04:25 10° N 16:08:44 88° W 16:13:04 10° S
Cosmos 2082 Rocket 2.2 16:03:43 10° SSW 16:09:20 66° ESE 16:14:58 10° NNE
Cosmos 540 Rocket 3.5 16:05:10 10° SSW 16:10:17 84° WNW 16:15:27 10° NNE
Meteor 1-5 Rocket 4.4 16:04:47 10° N 16:10:42 58° ENE 16:16:29 10° SSE
ARGOS 3.8 16:06:05 10° ESE 16:10:47 31° ENE 16:15:28 10° N
FengYun 1-2 T 4.4 16:08:42 10° SSE 16:14:17 83° WSW 16:19:51 10° NNW
COSMOS 2455 2.9 16:09:58 10° SSW 16:16:00 84° SE 16:21:44 12° NE
SMAP 3.0 16:12:19 10° SSE 16:16:59 88° ENE 16:21:40 10° NNW
NOAA 6 4.0 16:13:19 10° SSE 16:18:28 89° ENE 16:23:37 10° NNW
deb Chang Zheng 4 4.2 16:16:49 10° SE 16:20:41 33° ENE 16:24:34 10° N
Cosmos 1805 Rocket 4.4 16:16:59 10° NNW 16:21:13 53° W 16:25:25 10° S
Cosmos 2278 3.8 16:16:30 10° NNW 16:22:14 81° WSW 16:27:55 10° SSE
Cosmos 1933 4.0 16:18:25 10° SSW 16:22:23 56° WNW 16:26:22 10° N
Cosmos 1833 Rocket 3.3 16:17:18 10° SW 16:22:48 54° NW 16:28:21 10° NNE
Cosmos 2333 Rocket 3.5 16:20:08 10° NNW 16:24:22 20° NE 16:26:02 18° ENE
CZ-4B DEB 4.1 16:22:06 10° SSE 16:27:37 83° ENE 16:33:07 10° NNW
CZ-2C R/B 3.2 16:25:19 12° NNE 16:29:36 33° E 16:34:14 10° SSE
USA 305 2.8 16:25:50 10° WNW 16:30:05 70° NNE 16:32:51 21° E
Cosmos 1655 Rocket 4.2 16:25:06 10° N 16:31:17 48° ENE 16:37:23 10° SSE
Cosmos 1356 Rocket 4.1 16:28:24 10° N 16:32:14 33° ENE 16:36:05 10° SE
Cosmos 2219 Rocket 3.6 16:28:30 10° N 16:32:28 19° NE 16:33:20 18° NE
CZ-4B R/B 4.5 16:29:32 10° SSW 16:33:10 35° W 16:36:40 10° NNW
Cosmos 1500 4.2 16:30:47 10° NNW 16:34:24 48° W 16:37:59 10° S
Meteor 1-14 Rocket 4.3 16:28:50 10° NNW 16:34:44 88° WSW 16:40:42 10° S
Cosmos 44 Rocket 3.4 16:31:41 10° NW 16:36:39 77° SW 16:41:25 10° SSE
Meteor 2-16 Rocket 4.4 16:32:45 10° N 16:38:56 88° E 16:45:05 10° S
Cosmos 1515 Rocket 4.2 16:37:48 10° SSE 16:41:49 34° E 16:43:15 27° NE
COSMOS 2406 4.0 16:36:52 10° SW 16:42:28 51° NW 16:48:00 10° NNE
Cosmos 1814 Rocket 3.9 16:37:55 10° SSW 16:43:08 89° ESE 16:47:38 14° NNE
Cosmos 921 Rocket 3.2 16:40:14 10° S 16:44:15 46° ESE 16:45:57 29° NE
Cosmos 1570 Rocket 3.9 16:44:45 10° SSW 16:50:00 88° ESE 16:54:14 16° NNE
MOS 1-B Rocket 4.1 16:44:54 10° NNE 16:50:54 68° ESE 16:57:47 10° S
CZ-4B R/B 3.0 16:48:20 10° SSE 16:53:41 76° ENE 16:59:00 10° NNW
USA 267 3.2 16:50:26 24° ENE 16:54:37 79° SE 17:01:10 10° SW
Cosmos 2298 Rocket 4.0 16:49:41 10° NNW 16:55:03 88° ENE 17:00:24 10° SSE
Cosmos 371 Rocket 4.1 16:51:10 10° N 16:55:08 30° NE 16:55:08 30° NE
CZ-2D R/B 3.6 16:52:17 10° S 16:56:05 65° WSW 16:59:54 10° NNW
MOS 1-B 4.5 16:52:48 10° SSE 16:58:35 79° WSW 17:04:25 10° NNW
YAOGAN 3 4.5 16:55:27 10° SSE 16:59:45 67° ENE 17:04:06 10° N
ATLAS CENTAUR R/B 2.7 16:51:53 10° WSW 16:59:53 59° NNW 17:01:30 34° NE
COSMO-SKYMED 1 2.6 16:59:10 32° NE 17:00:56 56° E 17:05:11 10° S
Cosmos 1633 Rocket 3.7 16:57:03 10° NNW 17:01:22 56° W 17:05:39 10° S
Cosmos 1151 Rocket 3.5 16:57:57 10° SSW 17:02:15 63° WNW 17:06:37 10° N
Meteor 1-27 Rocket 4.0 16:57:17 10° SSE 17:02:24 41° E 17:04:01 33° NE
USA 306 2.8 16:58:08 10° WNW 17:02:24 88° SW 17:03:51 41° ESE
Cosmos 1666 3.9 16:59:34 10° NNW 17:03:06 41° W 17:06:36 10° SSW
Landsat 5 4.1 17:05:04 35° SE 17:05:04 35° SE 17:07:55 10° S
APEX 3.4 17:01:23 10° SSW 17:04:23 44° SSE 17:04:23 44° SSE
Meteor 2-6 Rocket 4.1 16:59:35 10° S 17:05:18 89° E 17:10:53 10° NNE
Cosmos 2360 Rocket 2.4 17:00:44 10° NNW 17:06:15 49° NE 17:08:17 34° ESE
SJ-11-01 4.2 17:01:49 10° SSE 17:06:34 80° ENE 17:11:20 10° NNW
YAOGAN 1 3.8 17:11:21 27° NNE 17:11:21 27° NNE 17:13:34 10° N
Cosmos 2237 4.1 17:03:50 10° NNW 17:09:33 66° ENE 17:13:44 19° SE
Cosmos 1900 4.3 17:04:54 10° SW 17:09:47 80° NW 17:11:53 35° NNE
CZ-2C R/B 3.9 17:17:20 10° S 17:17:58 10° S 17:18:35 10° S
Cosmos 2279 Rocket 4.4 17:12:15 10° SSW 17:18:23 62° WNW 17:24:33 10° N
Cosmos 1536 4.3 17:14:41 10° N 17:16:30 25° N 17:16:30 25° N
ATLAS 5 CENTAUR R/B 1.8 17:12:36 10° NW 17:19:09 77° SW 17:19:39 61° SSE
Cosmos 2266 Rocket 4.0 17:14:03 10° N 17:20:30 87° W 17:26:55 10° S
Meteor 2-15 4.4 17:14:32 10° S 17:20:39 89° W 17:26:47 10° N
ERBS 4.2 17:19:14 10° NW 17:20:46 21° NNW 17:20:46 21° NNW
USA 307 2.9 17:18:43 10° WNW 17:22:58 75° SSW 17:23:33 63° SSE
CZ-4C R/B 4.3 17:16:19 10° NW 17:23:03 40° WSW 17:30:44 10° S
SKYMED 3 4.5 17:23:34 40° N 17:25:06 85° WNW 17:29:27 10° SSW
SL-08 RB Rocket 3.6 17:20:38 10° SSE 17:25:15 83° ENE 17:29:52 10° NNW
Lacrosse 5 rocket 3.2 17:22:14 10° WNW 17:25:39 28° SW 17:28:56 11° S
NOSS 3-4 (A) 4.1 17:20:59 10° NW 17:27:25 47° NE 17:28:52 42° ENE
NOSS 3-4 (C) 4.1 17:21:05 10° NW 17:27:31 47° NNE 17:28:56 42° ENE
Cosmos 1933 Rocket 3.6 17:24:11 10° NNW 17:28:32 78° W 17:32:52 10° S
Cosmos 2322 Rocket 2.2 17:23:15 10° NNW 17:28:59 81° WSW 17:34:42 10° SSE
USA 234 3.9 17:23:13 10° SE 17:29:37 54° SW 17:36:01 10° WNW
COSMOS 2428 3.8 17:25:03 10° NNW 17:28:44 27° NNE 17:28:44 27° NNE
ATLAS 2AS CENTAUR R/B 3.6 17:23:24 10° NW 17:30:07 33° NNE 17:31:18 32° NE
NOAA 15 4.4 17:28:52 10° SSE 17:34:08 76° ENE 17:39:26 10° NNW
Cosmos 1544 4.1 17:31:11 10° NNW 17:34:39 45° W 17:38:07 10° SSW
Cosmos 1125 Rocket 4.3 17:31:41 10° NNW 17:36:45 51° WSW 17:41:50 10° S
Cosmos 1867 3.6 17:33:16 10° SSW 17:38:27 59° SE 17:38:27 59° SE
NOSS 3-3 (A) 4.2 17:33:26 10° SSW 17:38:22 45° SE 17:38:22 45° SE
NOSS 3-3 (C) 4.2 17:33:33 10° SSW 17:38:27 45° SE 17:38:27 45° SE
H-2A R/B 3.5 17:34:25 10° SSW 17:39:05 35° W 17:43:41 10° NNW
X-37B 3.4 17:37:21 10° SW 17:37:49 13° SW 17:37:49 13° SW
Okean O Rocket 2.4 17:36:23 10° S 17:40:44 51° W 17:45:07 10° NNW
Meteor 1-11 Rocket 4.1 17:36:09 10° NNW 17:41:44 64° W 17:47:25 10° S
GEOS 3 Rocket 3.6 17:41:55 63° NE 17:41:55 63° NE 17:46:56 10° NW
Cosmos 2322 4.5 17:38:47 10° NNW 17:42:44 37° NNE 17:42:44 37° NNE
USA 32 3.9 17:39:04 10° S 17:44:17 87° W 17:46:22 38° N
ATLAS CENTAUR R/B 4.0 17:42:48 10° NNW 17:44:13 14° N 17:44:13 14° N
USA 308 3.4 17:41:25 10° WNW 17:45:21 56° SW 17:45:21 56° SW
SKYMED 2 4.3 17:47:47 38° NNW 17:49:00 51° WNW 17:53:12 10° SW
SL-16 R/B 3.2 17:44:02 10° NW 17:49:25 45° WSW 17:54:46 10° S
ARGOS 4.1 17:45:39 10° S 17:50:52 48° W 17:56:06 10° NNW
Cosmos 2237 Rocket 4.1 17:47:24 10° N 17:49:04 16° N 17:49:04 16° N
Cosmos 2082 Rocket 3.8 17:49:00 10° WSW 17:53:54 29° NW 17:56:57 18° N
Cosmos 1244 Rocket 4.4 17:52:14 10° N 17:57:58 68° NE 17:57:58 68° NE
Cosmos 1241 Rocket 4.3 17:55:49 10° SSW 18:01:58 75° SE 18:01:58 75° SE
COSMOS 2455 4.4 17:57:27 10° W 18:02:39 29° NNW 18:04:54 23° N
Cosmos 2333 Rocket 2.8 18:03:52 10° NNW 18:08:05 49° NNW 18:08:05 49° NNW
CZ-2C R/B 3.7 18:06:50 20° N 18:09:59 40° WNW 18:14:46 10° SW
Cosmos 2219 Rocket 3.3 18:11:49 10° NNW 18:15:05 35° NNW 18:15:05 35° NNW
Aureole 3 Rocket 4.4 18:14:08 10° SSW 18:18:50 54° WNW 18:25:30 10° N
USA 267 3.6 18:37:47 56° NNW 18:37:47 56° NNW 18:43:52 10° W
Cosmos 2360 Rocket 3.6 18:45:02 10° NW 18:50:05 34° WSW 18:50:08 34° WSW
ATLAS 2AS CENTAUR R/B 4.1 19:14:51 10° NW 19:18:45 33° NW 19:18:45 33° NW
